Location: Newark
(34.6283°N, 36.0776°E)
Time: 08:56:34
(UTC+00:00)

Tiros 1 despin weight - Pass Details

Date: 29 September 2019
Orbit: 594 x 643 km, 48.2° (Epoch: 14 October)

Event Time Altitude Azimuth Distance (km) Brightness Sun altitude
Rises 08:06:16 0° 283° (WNW) 2,914 ? 48.5°
Reaches altitude 10° 08:09:16 10° 302° (WNW) 1,998 ? 48.9°
Maximum altitude 08:12:25 18° 346° (NNW) 1,530 ? 49.2°
Drops below altitude 10° 08:15:33 10° 29° (NNE) 1,978 ? 49.5°
Sets 08:18:30 0° 49° (NE) 2,873 ? 49.8°
